Regional Weather Roundup
Issued by NWS

Home | Current Version | Previous Version | Text Only | Print | Product List | Glossary On
Versions: 1 2 3 4 5 6 7 8 9 10 11 12 13 14 15 16 17 18 19 20 21 22 23 24 25 26 27 28 29 30 31 32 33 34 35 36 37 38 39 40 41 42 43 44 45 46 47 48 49 50
000
ASUS46 KSEW 290710
RWRWA

WASHINGTON REGIONAL WEATHER ROUNDUP
NATIONAL WEATHER SERVICE SEATTLE WA
1100 PM PST SUN DEC 28 2014

NOTE:"FAIR" INDICATES FEW OR NO CLOUDS BELOW 12,000 FEET WITH NO
SIGNIFICANT WEATHER AND/OR OBSTRUCTIONS TO VISIBILITY.

WAZ505-507>509-290800-
SEATTLE, TACOMA, EVERETT, AND VICINITY

CITY           SKY/WX    TMP DP  RH WIND       PRES   REMARKS
EVERETT        PTCLDY    36  34  92 CALM      30.15S FOG
BOEING FIELD   MOCLDY    42  36  79 NE3       30.17R
RENTON         CLOUDY    40  32  73 CALM      30.16S
SEATAC AIRPORT MOCLDY    39  36  89 NE5       30.15S
JBLM-MCCHORD   CLOUDY    39  39  99 NE7       30.14S
PUYALLUP       NOT AVBL
BREMERTON      CLOUDY    36  34  93 N7        30.17F
JBLM-FT LEWIS  CLOUDY    38  38  99 E5        30.14R
TACOMA NARROWS CLOUDY    39  37  92 N7        30.15R
$$

WAZ001-503-506-510-514-515-290800-
NORTH INTERIOR

CITY           SKY/WX    TMP DP  RH WIND       PRES   REMARKS
BELLINGHAM     PTCLDY    37  25  61 N17G24    30.19R
FRIDAY HARBOR  CLOUDY    40  29  64 N15       30.21R
EASTSOUND      MOCLDY    41  32  70 NE9       30.20R
PORT ANGELES   CLOUDY    38  36  92 MISG      30.18S
NAS WHIDBEY    CLOUDY    40  35  83 NE5       30.19R
ARLINGTON      MOCLDY    34  30  86 N7        30.19R
BURLINGTON     PTCLDY    37  37 100 NE5       30.19R
$$

WAZ020-022-039-040-504-511-512-290800-
SOUTHWEST INTERIOR

CITY           SKY/WX    TMP DP  RH WIND       PRES   REMARKS
SHELTON        RAIN      38  35  89 NE9       30.13R FOG
OLYMPIA        CLOUDY    37  36  96 W3        30.14S FOG
CHEHALIS       CLOUDY    36  36 100 CALM      30.14S
KELSO          MOCLDY    39  36  87 SE6       30.19S
VANCOUVER      LGT RAIN  42  36  79 CALM      30.18S
SCAPPOOSE, OR  CLOUDY    40  36  86 W7        30.17S
PORTLAND, OR   LGT RAIN  41  38  89 SW5       30.19S FOG
$$

WAZ021-516-517-290800-
WASHINGTON COAST

CITY           SKY/WX    TMP DP  RH WIND       PRES   REMARKS
FORKS          CLEAR     35  34  96 NE5       30.15R
HOQUIAM        CLEAR     37  35  92 NE7       30.12S
ASTORIA, OR    CLOUDY    44  36  73 W15       30.14F
$$

WAZ019-023-024-040-518-519-290800-
CASCADE MOUNTAINS AND COLUMBIA GORGE

CITY           SKY/WX    TMP DP  RH WIND       PRES   REMARKS
TROUTDALE, OR  CLOUDY    43  37  79 CALM      30.17F
THE DALLES, OR CLOUDY    38  35  89 NE5       30.15S
$$

WAZ026-027-041>044-520-521-290800-
EAST SLOPES

CITY           SKY/WX    TMP DP  RH WIND       PRES   REMARKS
OMAK           FLURRIES  33  25  72 N12G22    30.20R WCI  24
WENATCHEE      LGT SNOW  33  31  92 W8        30.16S VSB 3/4
ELLENSBURG     CLOUDY    34  28  79 E3        30.10S
YAKIMA         LGT RAIN  35  32  88 CALM      30.13S
$$

WAZ028-034-035-290800-
COLUMBIA BASIN

CITY           SKY/WX    TMP DP  RH WIND       PRES   REMARKS
EPHRATA        CLOUDY    32  29  88 N8        30.15R
MOSES LAKE     CLOUDY    31  29  92 N7        30.16R
PASCO          CLOUDY    33  32  96 CALM      30.17S
HERMISTON, OR  CLOUDY    36  33  89 E10       30.14S
$$

WAZ036>038-290800-
NORTHEAST WASHINGTON

CITY           SKY/WX    TMP DP  RH WIND       PRES   REMARKS
SPOKANE GEIGER FLURRIES  29  26  89 E9        30.13R
SPOKANE FELTS  CLOUDY    31  24  75 E9        30.17R
FAIRCHILD AFB  FLURRIES  28  28 100 NE10      30.13R WCI  19
COEURDALENE,ID MOCLDY    27  21  80 N22G29    30.16R WCI  12
DEER PARK      LGT SNOW  27  23  85 NE17      30.18R FOG     WCI  14
$$

WAZ029>033-290800-
SOUTHEAST WASHINGTON

CITY           SKY/WX    TMP DP  RH WIND       PRES   REMARKS
PULLMAN        CLOUDY    24  22  91 NE5       30.12S
LEWISTON, ID   CLOUDY    31  30  96 CALM      30.15S
WALLA WALLA    CLOUDY    34  29  82 E5        30.14S
PENDLETON, OR  CLOUDY    33  32  96 E9        30.11F
$$



USA.gov is the U.S. government's official web portal to all federal, state and local government web resources and services.